Wind_Speed
14 14 14 13 13 12 11 11 11 11 12 12 13 13 12 12 12 12 12 12 12 12 15 17 16 17 17 15 14 13 14 15 15 15 16 17 17 18 17 16 15 14 13 13 15 17 18 17 15 16 17 17 17 17 18 19 19 20 20 19 17 16 17 18 19 20 20 21 21 20 18 17 16 15 16 17 18 18 18 17 15 16 16 15 15
17 16 15 14 13 13 13 12 11 11 11 12 12 12 12 11 11 12 12 12 13 14 15 16 16 17 18 16 13 13 13 14 15 15 15 16 17 17 17 17 17 15 14 13 14 16 18 19 17 17 17 16 16 16 17 18 19 20 20 19 17 16 16 18 19 19 20 20 20 19 18 16 16 15 16 16 17 17 17 16 14 16 16 14 14
19 17 16 15 14 13 13 15 13 12 11 11 12 12 12 11 11 11 12 13 15 16 15 16 17 18 19 16 13 14 14 14 15 15 15 15 16 16 16 17 17 16 15 14 14 15 18 20 17 17 17 15 15 15 16 17 18 19 18 18 17 17 17 19 20 20 20 19 18 18 17 17 17 16 16 16 16 16 16 16 15 16 15 14 14
19 18 16 14 14 14 13 15 14 12 12 11 11 11 12 12 11 12 12 14 16 15 14 15 17 17 17 15 14 14 14 15 15 14 15 15 15 16 16 16 16 15 16 15 15 15 17 18 17 16 16 16 16 15 15 16 16 17 18 18 18 18 18 18 18 18 18 17 16 15 16 17 17 16 16 16 16 16 16 16 16 16 15 14 14
20 19 18 15 14 15 13 14 14 12 11 11 11 11 12 12 12 12 13 14 15 14 14 15 16 16 15 15 14 14 14 14 14 14 15 14 15 15 15 16 15 15 16 16 15 16 17 18 18 17 16 16 16 15 14 13 14 15 18 20 20 19 17 16 15 15 16 16 16 14 14 16 17 16 15 16 16 16 16 16 15 15 14 14 13
20 20 19 17 14 15 14 14 14 12 11 11 11 11 11 12 13 12 13 13 13 14 14 14 15 15 14 15 15 15 15 14 13 14 15 14 14 15 15 15 15 15 16 16 16 16 16 18 18 17 17 17 17 16 14 12 12 15 18 20 20 18 16 14 13 12 13 15 16 14 12 14 16 15 14 15 14 15 15 15 15 15 14 13 13
20 21 19 17 16 16 16 15 14 13 12 11 11 11 12 12 12 12 13 13 13 13 13 14 14 14 14 15 14 15 15 14 13 13 14 14 14 14 14 14 14 14 15 15 17 17 16 17 18 18 18 17 17 16 15 12 12 14 17 18 18 17 15 14 12 11 12 13 14 13 12 13 16 15 14 14 14 13 13 14 14 14 13 12 11
21 22 20 18 17 16 17 16 14 13 12 12 12 11 12 12 11 12 12 13 12 12 12 14 14 13 14 15 13 14 16 14 12 12 13 14 14 13 13 13 14 14 13 14 15 17 18 18 19 18 18 17 16 15 14 12 11 13 15 15 15 15 15 14 13 12 12 11 12 12 12 13 15 15 13 13 13 12 12 12 12 13 13 11 11
21 21 20 18 17 16 16 16 15 14 13 12 12 11 12 12 11 11 11 12 12 11 12 13 14 13 13 14 13 15 16 14 12 11 12 13 13 13 13 14 14 14 13 13 13 16 18 19 18 18 17 15 14 13 13 12 11 12 12 12 14 14 14 13 12 11 11 10 11 11 12 13 14 14 12 12 12 12 11 11 12 12 11 10 9
22 21 20 19 18 16 16 17 16 14 13 12 12 11 12 12 11 10 11 12 12 12 12 13 13 13 12 12 13 14 15 14 11 11 12 13 13 12 14 14 14 14 14 13 14 16 18 20 18 17 16 13 12 12 12 11 10 10 11 11 12 13 11 9 7 7 9 10 11 12 12 12 13 13 11 11 11 11 11 11 11 10 10 10 9
22 21 20 19 18 17 17 17 16 15 13 12 12 11 11 12 11 11 11 12 12 12 12 13 13 12 12 13 14 14 13 12 10 11 12 12 12 13 13 14 14 14 14 15 17 17 18 19 18 17 15 13 12 12 11 10 10 10 11 11 11 11 9 9 8 8 10 10 12 12 12 12 12 12 11 11 11 11 11 11 11 10 10 9 8
21 20 19 19 17 17 17 16 16 15 13 13 13 12 12 12 11 11 11 12 13 12 12 13 13 13 13 13 14 14 11 11 10 11 12 12 12 13 14 13 13 14 14 15 16 16 16 17 16 15 14 13 12 12 12 10 10 11 11 11 11 10 9 10 9 9 10 10 12 12 12 12 12 11 10 10 9 10 10 10 10 9 9 8 7
19 19 18 18 16 15 16 16 15 14 14 12 12 12 12 11 11 11 11 13 13 12 13 12 13 14 14 14 14 13 11 10 10 11 12 13 14 13 13 13 13 15 16 15 14 15 15 15 15 14 13 12 12 12 12 11 10 11 12 12 12 11 12 12 10 9 10 10 11 11 10 10 10 10 8 8 8 8 8 8 7 7 7 6 5
18 17 17 16 15 14 15 15 15 14 13 12 11 11 11 11 11 11 12 13 12 12 13 12 13 14 15 14 14 12 11 10 10 11 11 12 14 14 13 14 15 15 16 16 15 15 14 14 14 13 12 11 11 11 11 11 10 10 11 11 11 11 12 12 9 9 9 9 10 9 8 8 8 8 7 7 7 8 7 6 6 6 6 5 4
18 17 16 15 14 13 14 15 15 13 13 12 11 11 10 11 12 12 13 14 13 12 12 13 13 13 14 13 12 12 12 11 10 11 11 12 13 13 13 15 16 15 16 17 16 15 14 14 13 13 12 11 11 10 10 10 9 8 8 8 8 9 9 8 7 7 7 7 10 8 6 7 7 7 7 7 7 6 6 6 5 5 4 4 3
18 18 17 15 14 13 13 14 14 11 11 12 10 11 11 11 12 13 13 14 14 12 11 12 13 13 12 11 12 12 12 12 11 11 11 12 12 13 13 14 16 16 16 16 15 14 14 13 13 12 11 10 10 10 9 9 8 7 8 8 8 9 10 9 6 5 6 7 10 7 6 7 6 6 8 7 6 5 5 5 5 4 3 2 1
17 17 17 16 15 13 13 14 14 12 11 11 11 11 11 12 12 13 14 14 14 13 12 12 12 13 12 10 11 12 13 12 12 11 11 11 12 12 13 14 15 15 15 15 14 13 13 12 12 11 11 11 10 10 8 8 7 7 9 9 10 11 10 8 6 5 6 7 9 7 5 5 4 3 6 7 6 5 5 5 4 3 2 2 1
16 16 16 15 15 14 14 14 15 14 12 10 11 12 12 13 12 13 13 13 14 14 13 13 12 13 12 11 11 13 13 12 12 12 11 11 11 14 15 14 14 14 14 14 13 12 12 11 11 10 10 10 10 9 8 8 8 9 9 9 10 10 8 7 7 6 6 6 7 6 3 3 2 1 5 6 5 5 5 4 3 2 2 3 2
17 16 14 14 14 15 15 14 15 15 14 12 11 11 13 14 13 13 13 14 15 14 14 14 14 13 12 12 12 13 13 13 13 12 11 10 12 14 15 14 12 13 13 13 13 12 12 11 10 10 10 10 10 9 9 9 8 8 9 9 9 7 7 7 7 6 5 5 4 2 2 3 1 1 4 6 5 5 4 3 2 3 2 2 1
18 16 13 12 13 15 14 14 16 16 16 15 12 12 12 13 14 14 14 15 15 15 15 14 14 13 12 13 12 13 13 13 13 12 11 10 11 11 12 12 11 12 12 12 12 12 11 11 10 9 9 9 9 8 8 8 7 7 7 7 7 6 5 4 4 5 4 2 0 2 3 3 2 2 5 6 6 4 4 3 2 2 1 1 1
16 16 13 11 12 14 14 15 16 16 16 17 16 14 13 13 14 15 16 16 16 16 16 15 15 12 12 14 13 12 12 12 11 11 11 10 10 9 9 10 11 11 11 11 11 11 10 9 9 8 9 8 7 6 6 7 6 5 5 5 5 4 3 1 2 5 5 1 2 4 4 2 1 2 6 7 6 4 3 1 0 1 1 2 2
13 15 14 12 14 15 14 15 15 15 16 17 17 17 17 16 15 16 17 17 16 16 17 16 15 13 14 15 13 11 10 11 11 10 9 9 9 9 9 9 10 10 10 11 10 10 9 9 8 8 8 6 5 5 4 5 5 5 3 3 3 5 6 3 4 6 6 1 4 5 5 2 1 4 7 6 4 3 2 1 2 2 2 2 3
12 13 12 12 14 16 14 14 14 14 16 16 17 19 19 18 17 18 18 17 17 18 17 16 15 14 15 14 12 11 10 10 10 10 9 9 9 9 8 8 9 10 10 10 10 9 8 8 7 7 6 6 6 6 5 3 3 4 3 1 1 3 5 5 5 6 5 3 6 7 5 3 4 6 7 4 2 1 1 1 2 3 3 3 3
13 14 12 11 13 16 14 12 14 15 15 16 16 19 20 19 19 18 18 18 19 19 17 15 15 14 14 12 11 12 10 10 11 10 10 10 10 10 9 8 8 9 9 9 9 9 7 6 5 5 4 6 7 6 7 5 2 2 2 2 2 3 5 5 6 7 4 6 8 7 6 5 5 4 4 3 1 1 1 2 3 3 3 4 4
15 16 14 13 14 16 14 11 15 16 17 17 16 18 19 19 20 19 19 20 19 17 16 16 15 13 13 12 12 12 11 11 12 11 10 10 10 10 8 8 8 8 9 9 8 7 6 5 4 4 3 5 6 6 7 6 4 4 4 5 6 7 7 7 9 6 5 7 8 8 8 7 6 5 4 2 1 1 2 3 3 3 4 4 5
17 18 16 15 14 17 16 12 15 17 18 17 15 16 18 19 19 20 19 19 17 14 15 15 14 13 14 14 13 12 12 11 12 10 9 8 8 7 7 8 7 6 8 8 6 4 2 3 3 5 5 4 3 3 3 5 8 7 7 7 8 9 8 8 8 6 7 8 8 7 8 8 7 6 5 4 2 1 0 1 2 3 4 4 5
18 18 17 16 14 17 18 15 15 18 19 17 16 16 16 18 18 18 18 17 17 14 13 13 13 14 13 13 13 12 11 10 10 11 9 9 9 10 11 10 8 7 6 5 5 4 2 3 5 5 5 4 5 5 3 8 12 9 8 9 9 8 7 7 7 4 7 9 7 7 7 7 7 6 5 4 3 3 2 2 2 2 2 3 4
19 18 17 18 15 16 18 17 17 18 19 17 17 17 16 17 17 17 17 18 18 16 13 12 13 13 12 13 13 12 11 10 12 12 9 9 10 11 11 9 8 6 4 4 4 4 2 1 2 1 0 3 8 9 8 10 12 10 9 11 10 8 7 8 9 5 5 8 9 8 7 7 6 5 5 4 4 4 4 4 4 3 3 4 4
19 18 19 20 17 17 17 17 18 17 19 18 17 17 16 17 17 17 18 18 18 18 16 13 13 12 13 14 13 13 12 12 12 12 10 7 8 9 8 7 6 6 4 4 3 2 3 4 2 1 1 4 5 7 9 10 11 11 11 11 9 8 8 9 9 7 4 6 10 8 7 6 5 6 5 5 5 4 4 4 4 4 3 4 4
20 18 18 21 19 18 16 17 19 18 17 17 18 18 16 15 16 17 18 18 16 17 16 14 13 12 11 10 11 13 13 12 11 12 10 7 7 7 5 6 5 5 4 4 3 2 2 3 3 1 1 4 5 5 8 10 12 13 12 10 9 7 7 9 9 10 7 4 7 8 8 8 7 7 6 6 6 5 4 3 3 3 3 4 4
20 20 19 20 20 20 19 18 18 18 18 16 18 20 18 17 17 18 17 16 16 17 16 14 14 12 10 9 10 11 12 11 10 10 9 7 7 5 4 6 6 4 3 3 2 3 1 0 3 2 1 3 3 3 7 10 12 13 12 11 11 8 6 9 11 11 8 4 3 5 6 7 8 7 7 7 6 5 4 3 3 3 3 4 5
18 19 20 22 22 21 21 20 18 18 19 18 18 18 19 18 16 17 16 16 17 16 15 14 13 13 11 10 9 10 11 10 9 9 7 7 8 7 4 4 5 4 3 3 2 1 0 1 4 2 1 3 2 4 5 8 14 15 12 10 9 7 7 9 10 9 7 6 5 3 3 3 5 5 5 6 6 5 3 4 4 5 6 6 6
16 17 20 23 22 20 20 20 18 18 19 19 19 16 17 17 15 16 16 15 14 14 15 14 14 13 11 10 10 11 11 8 8 9 9 8 8 8 5 3 4 4 3 2 1 1 1 3 2 3 2 3 3 4 4 6 12 15 13 9 8 7 8 9 9 9 7 7 6 1 1 0 4 4 4 4 4 5 4 4 5 6 7 8 7
15 16 18 20 19 17 17 17 17 17 17 18 17 16 16 15 15 15 14 14 13 13 14 14 14 13 11 10 10 11 10 8 8 9 10 9 6 7 6 4 5 4 2 1 1 1 2 3 2 1 3 3 3 2 4 5 8 13 14 10 9 9 9 8 8 10 8 6 5 2 4 3 2 3 4 4 3 5 5 4 5 6 7 8 7
16 16 17 17 17 16 16 16 17 16 16 16 16 15 15 14 15 13 12 13 13 13 13 14 13 12 12 11 10 9 9 9 9 8 8 6 5 6 6 5 4 5 3 2 2 2 3 4 2 2 4 4 1 1 2 4 4 7 11 10 9 9 7 7 7 7 7 5 5 4 6 4 2 2 4 4 3 4 5 5 6 6 7 7 7
15 17 17 17 17 16 16 17 17 16 15 15 14 14 15 15 14 12 12 12 13 13 13 13 12 12 12 11 10 9 9 8 6 5 5 7 7 7 8 6 4 4 3 2 2 2 3 4 3 3 3 1 3 3 4 7 5 5 6 7 8 7 6 7 8 5 5 5 4 5 5 3 4 4 3 4 3 3 5 6 7 7 6 7 9
16 17 16 16 17 16 16 16 16 16 15 15 13 13 14 14 13 13 12 12 12 12 12 12 12 12 11 10 10 9 8 6 3 4 6 6 5 6 9 7 4 4 3 2 3 3 3 3 3 3 2 0 4 5 3 5 7 9 6 4 4 4 2 3 6 4 2 3 4 7 6 4 5 5 3 4 2 3 6 6 8 9 7 8 10
16 16 16 16 17 16 16 16 16 15 15 15 13 12 14 13 12 12 10 10 11 11 12 12 12 11 10 10 10 8 8 6 4 5 6 5 3 6 9 6 5 4 2 3 4 4 4 3 2 2 3 2 4 5 3 3 4 8 10 6 3 2 2 3 4 3 3 4 5 5 5 5 6 6 4 6 4 5 7 6 7 8 7 9 10
16 16 15 15 16 16 17 16 16 15 15 14 13 13 14 12 11 11 9 9 10 9 10 12 10 9 9 10 9 9 8 6 5 4 5 6 6 6 6 6 6 4 3 4 4 4 3 1 2 2 2 2 3 3 3 2 7 3 9 7 5 3 4 2 2 6 6 5 5 5 5 6 6 5 3 7 8 7 6 5 7 8 9 11 9
16 16 16 15 16 16 17 17 15 15 15 13 13 13 12 12 12 11 9 11 11 8 8 11 11 10 9 9 9 9 8 7 7 4 5 6 7 5 4 5 5 4 5 5 5 4 2 1 1 1 4 3 2 3 2 1 5 2 6 7 7 3 3 5 5 6 7 6 5 5 4 5 6 4 4 7 6 4 5 8 10 11 12 12 10
17 16 16 16 16 16 17 16 16 15 14 13 13 13 11 12 13 11 9 10 11 10 10 11 11 11 9 8 8 9 9 8 8 6 5 4 6 5 3 4 4 4 5 5 5 4 2 1 1 2 4 2 1 5 3 1 4 3 2 4 9 8 6 7 6 4 5 3 3 4 4 5 7 7 6 8 8 8 10 12 13 12 11 11 10
18 17 16 16 16 16 16 15 15 15 13 12 13 12 11 11 12 11 10 10 11 11 12 12 10 11 10 9 9 8 8 8 7 7 5 4 6 5 3 4 3 2 3 3 3 2 2 2 1 3 4 2 3 7 5 3 5 5 3 3 2 7 5 2 3 2 2 1 4 6 2 4 4 5 5 6 9 11 10 11 13 12 10 10 10
19 18 17 17 16 16 16 15 15 14 13 12 12 11 11 10 11 12 11 10 11 10 12 13 11 11 10 9 10 8 7 7 7 7 6 5 5 4 4 4 2 1 1 2 2 1 2 3 4 4 4 3 4 6 6 4 3 4 4 3 2 1 2 4 1 2 4 2 5 6 4 4 6 8 8 6 7 8 8 11 12 9 9 10 9
20 18 18 18 17 17 17 15 15 14 14 13 11 11 11 9 10 12 10 9 10 10 11 12 10 11 9 8 8 8 7 8 6 6 5 4 4 4 4 4 2 2 3 3 2 0 1 2 5 5 5 5 4 5 5 5 2 4 3 1 2 3 1 3 3 4 5 6 8 8 7 6 8 11 10 6 6 7 9 12 10 8 8 9 8
20 19 19 18 17 18 18 16 16 14 14 13 11 11 11 9 9 11 9 9 10 10 11 11 10 11 10 8 8 8 7 7 6 6 5 5 4 4 5 4 2 2 2 2 1 1 1 1 3 4 5 5 4 5 5 5 3 2 2 2 1 3 1 2 4 4 3 6 9 8 8 9 10 11 9 5 7 6 10 13 12 10 9 9 8
21 21 20 19 18 19 18 17 17 15 14 14 11 11 12 9 9 10 9 9 9 9 10 11 11 10 10 10 9 8 8 8 6 6 7 6 5 4 4 5 3 3 3 3 2 2 1 1 2 3 3 4 3 5 6 5 6 5 2 2 1 3 4 4 3 3 3 4 7 7 10 13 10 9 7 5 8 7 8 12 12 10 8 7 8
21 21 21 19 19 20 19 18 17 16 15 15 13 12 12 10 9 9 9 9 8 8 8 10 10 9 9 10 9 9 8 8 8 7 8 7 6 7 6 5 3 3 4 3 2 3 2 2 3 3 2 3 2 4 6 6 6 5 2 1 2 2 6 6 1 1 2 2 5 8 12 11 6 5 4 6 4 6 6 9 9 9 8 7 7
21 22 21 21 21 21 20 19 18 17 16 16 14 13 12 11 10 9 9 8 8 9 8 9 10 9 10 10 10 10 9 9 10 8 7 6 7 7 6 5 3 4 4 2 2 2 2 2 2 1 1 1 3 4 5 6 5 4 3 2 4 4 9 9 4 1 3 2 3 5 11 11 3 2 3 7 3 5 11 12 8 6 7 7 7
21 21 21 21 22 22 20 19 18 17 17 17 15 13 13 11 10 9 10 8 8 9 9 10 10 9 10 10 9 10 9 9 10 10 8 8 7 6 6 6 4 4 4 3 3 3 3 2 1 1 1 3 3 3 5 6 5 6 5 2 3 5 9 7 3 7 6 1 2 3 4 8 5 3 6 8 4 5 10 8 5 4 5 6 5
22 21 21 22 22 22 21 20 19 18 18 19 17 14 13 12 10 9 9 8 8 9 9 9 9 9 10 9 8 10 10 8 9 10 10 9 8 7 7 6 5 5 4 4 3 3 3 3 2 3 3 3 3 4 5 6 6 7 7 5 5 6 7 3 2 7 5 3 4 4 3 2 1 5 8 4 11 12 7 4 6 4 4 6 5
23 21 21 22 22 23 22 21 20 18 19 20 18 16 14 13 12 10 10 10 9 10 9 9 9 8 8 8 7 9 10 10 10 10 10 10 10 8 7 7 6 6 5 3 3 3 4 4 4 4 4 4 4 5 5 6 7 7 6 8 8 6 8 5 2 6 5 3 3 4 7 7 3 3 4 8 15 12 5 2 2 1 3 5 6
Wind_Direction
134 135 136 130 121 120 118 110 101 104 106 105 106 106 105 103 103 99 95 97 97 96 100 99 97 98 94 91 87 88 92 94 95 96 99 99 99 100 98 94 93 94 94 97 99 96 95 90 84 85 84 86 89 93 97 99 100 101 102 102 101 99 95 95 94 93 93 92 91 91 91 91 91 92 94 93 90 87 88 90 91 92 92 93 93
138 139 139 135 126 126 128 121 114 114 111 109 108 104 103 101 100 98 97 98 98 98 99 98 100 100 95 92 90 91 94 96 98 98 99 99 100 98 96 98 98 97 94 94 97 96 95 89 82 84 86 90 91 91 94 96 99 100 101 101 101 100 98 97 96 94 92 91 91 93 93 91 90 92 93 92 90 89 92 94 94 93 92 93 92
135 136 136 133 127 128 130 126 123 121 118 112 110 106 103 101 99 96 94 95 97 98 98 101 102 99 98 99 97 96 95 96 98 100 101 98 99 97 96 99 99 100 99 96 96 95 93 89 84 86 89 92 90 88 89 92 96 99 101 103 103 102 99 96 96 95 94 93 91 91 91 90 89 93 94 90 89 90 94 96 96 96 94 93 91
132 132 131 127 124 125 128 129 125 124 123 116 112 109 106 103 101 97 95 98 99 99 95 99 104 101 102 104 101 97 97 97 98 101 102 101 102 100 97 98 97 100 102 100 97 93 93 95 92 91 91 90 87 84 87 92 97 100 104 105 106 104 100 97 98 97 97 99 96 92 92 93 91 92 93 90 90 90 92 93 95 97 97 95 92
131 129 125 123 123 124 129 129 125 125 124 119 118 113 109 106 104 99 97 101 101 100 94 95 101 99 100 103 104 102 101 100 102 105 102 102 103 102 101 100 98 98 99 98 97 96 97 98 94 92 92 91 92 89 87 92 98 103 106 107 108 106 102 99 97 95 98 104 103 98 95 95 93 92 92 92 93 93 93 93 94 95 95 97 97
130 128 124 125 126 125 126 123 123 124 121 121 120 115 112 107 103 98 96 97 98 99 98 97 97 98 99 102 105 105 103 102 104 107 103 102 102 102 104 102 100 99 99 99 100 100 99 97 94 92 91 91 92 94 92 91 97 105 109 110 109 105 101 96 93 91 96 103 104 103 99 97 95 92 92 93 93 94 94 94 94 91 90 95 98
129 129 126 127 127 126 123 120 122 125 123 120 115 113 112 106 103 101 98 97 100 102 100 101 102 102 99 97 101 105 104 103 106 107 106 107 105 102 102 104 102 101 101 104 104 103 100 97 95 92 91 91 89 90 93 92 95 104 110 110 106 100 98 94 93 96 100 103 103 106 105 100 96 92 90 90 90 90 92 93 94 93 92 90 89
128 128 125 126 126 125 121 120 123 126 125 119 115 113 111 109 109 107 103 102 105 106 103 104 104 102 100 102 106 108 106 104 107 109 109 109 106 104 103 104 102 99 98 101 103 104 104 100 96 95 91 88 88 89 91 92 96 104 109 105 100 97 96 94 93 92 93 94 97 104 104 100 98 95 92 91 92 91 91 91 91 90 91 89 85
127 123 123 125 123 123 121 120 120 124 125 122 121 117 112 112 112 110 107 107 108 106 106 107 107 106 107 111 111 109 107 105 110 115 116 112 108 108 107 105 103 100 98 97 98 100 103 101 98 95 90 86 89 92 92 95 99 105 108 101 100 103 101 100 101 95 87 86 94 101 99 97 97 96 96 96 97 98 97 96 94 90 93 102 97
119 116 119 121 122 123 121 121 121 124 126 127 126 119 114 113 114 114 111 112 114 110 109 112 111 113 115 114 109 105 105 108 118 124 119 115 112 111 108 107 106 105 104 103 101 101 103 103 99 93 90 89 90 93 96 103 109 111 109 106 106 106 103 97 95 105 102 94 98 102 99 99 98 96 97 96 98 100 100 100 101 95 95 100 95
113 114 115 119 122 122 121 120 122 125 127 130 127 122 120 122 125 122 119 121 122 118 117 120 117 116 118 113 106 101 105 118 130 127 120 116 114 113 111 109 109 107 105 105 107 106 105 104 100 94 93 92 91 91 95 104 112 115 114 111 107 102 97 83 70 95 110 103 101 102 98 99 100 98 97 95 94 94 94 93 94 94 92 91 89
111 113 115 119 121 123 122 118 120 123 125 128 127 130 131 134 135 126 125 130 128 128 128 126 123 122 121 114 107 107 116 130 133 125 121 118 116 117 115 112 109 106 105 104 105 106 104 104 102 100 99 97 95 91 92 98 106 116 120 113 106 100 91 87 90 100 103 103 104 105 103 103 104 103 102 99 96 95 93 92 91 91 92 93 90
107 108 112 117 120 122 118 116 119 121 123 125 128 131 130 131 131 125 126 132 132 134 132 131 129 126 126 120 115 118 126 132 129 122 119 120 121 120 115 112 109 105 106 107 105 105 105 105 104 105 104 104 101 94 92 93 103 115 122 119 111 104 97 98 107 111 105 104 107 114 115 110 113 112 108 101 97 95 93 95 96 96 95 93 92
109 109 111 114 117 118 115 115 116 121 125 125 130 128 127 127 128 128 125 130 136 138 135 135 133 127 126 124 120 125 130 130 127 123 120 120 123 122 118 114 112 108 108 107 106 108 108 107 107 107 107 106 103 98 94 93 103 116 125 127 121 115 110 108 111 114 114 117 123 129 116 106 118 120 118 112 104 102 100 97 92 94 95 94 91
111 111 112 114 115 116 116 115 115 123 127 127 134 131 130 128 132 137 131 134 141 141 137 133 130 124 121 122 126 131 132 129 126 125 125 126 126 124 123 118 114 111 109 107 108 111 113 112 111 108 106 105 102 98 95 93 98 112 125 128 130 121 103 99 109 109 104 123 143 145 112 97 115 124 119 113 109 111 111 106 99 95 96 97 93
112 114 114 115 117 119 118 115 118 125 126 128 136 136 135 132 135 143 140 141 141 139 135 129 126 121 119 125 132 133 134 131 128 130 131 131 130 129 126 119 115 112 109 108 110 113 115 114 111 108 106 101 98 96 92 87 89 106 121 119 121 115 101 100 109 107 95 124 144 138 107 94 100 122 120 118 122 119 114 113 113 108 109 118 109
114 118 116 117 121 120 118 118 120 123 123 127 137 141 144 141 140 145 144 142 138 137 134 129 128 125 126 130 131 131 134 134 132 134 134 132 132 131 125 118 116 115 113 111 112 115 116 115 112 107 103 100 97 93 84 78 85 106 120 122 123 119 115 107 103 115 113 124 136 125 101 89 83 128 141 140 134 116 110 116 121 124 131 127 99
112 116 116 123 127 121 118 120 121 122 124 132 141 141 144 142 140 144 143 139 137 136 134 134 136 136 136 136 134 132 134 134 133 133 132 134 133 129 125 121 118 117 117 115 116 118 119 117 113 108 106 102 95 86 78 80 94 106 114 119 123 125 123 109 107 122 119 119 129 123 92 63 44 181 166 152 133 124 124 124 124 126 103 84 69
109 112 117 127 128 121 118 121 123 124 129 137 139 134 139 140 139 142 141 138 137 135 137 140 142 143 142 142 139 133 131 129 128 129 129 128 127 127 126 124 120 118 115 113 115 120 122 121 117 115 111 104 97 93 90 95 104 108 110 111 111 115 119 118 127 126 120 134 131 101 18 1 327 211 169 149 131 130 121 111 102 98 95 81 64
111 111 116 128 128 123 123 127 126 125 131 135 134 133 136 138 141 144 142 139 139 140 143 143 141 146 146 142 139 133 131 126 123 124 126 126 124 125 126 126 125 119 114 113 117 120 122 123 123 122 121 119 115 111 107 106 108 109 106 102 98 97 99 113 141 129 117 148 197 353 354 346 286 191 156 139 122 113 102 101 92 81 22 333 317
116 116 120 131 130 124 126 132 129 124 129 133 133 136 135 140 147 145 140 139 142 144 143 140 138 144 145 140 137 135 136 133 129 127 129 131 128 129 130 130 126 119 116 117 119 123 125 127 128 130 134 135 134 133 125 113 107 112 106 87 71 40 11 15 102 114 114 107 331 353 355 337 276 159 144 136 123 119 113 99 43 359 323 326 309
116 118 126 137 131 125 126 129 128 126 129 130 134 141 141 146 150 145 140 140 145 146 144 142 142 146 147 144 140 140 141 137 140 141 137 138 136 136 133 129 125 119 118 120 123 127 130 132 135 141 148 151 158 165 152 128 110 112 128 107 66 19 357 28 74 92 115 104 344 7 5 7 95 121 129 126 119 129 126 33 346 346 336 315 310
123 122 131 135 125 122 127 126 126 131 130 131 140 144 144 148 150 146 145 146 149 149 146 146 147 150 151 149 144 144 144 141 147 151 150 148 141 134 131 129 123 119 121 125 130 131 134 138 142 150 163 181 197 202 194 176 124 104 121 142 86 52 47 69 79 84 91 5 3 23 20 56 97 115 121 114 96 95 81 331 306 315 314 301 307
130 135 139 134 124 123 127 126 128 135 133 135 145 145 144 148 148 145 147 148 149 148 147 151 155 153 151 148 146 145 146 149 149 146 144 142 137 131 129 128 125 127 130 133 134 132 138 143 150 167 191 212 219 226 220 217 198 106 67 57 65 82 74 66 80 88 60 12 26 40 47 72 85 94 105 112 111 10 328 304 292 289 306 316 314
134 138 141 136 130 127 128 129 130 135 134 137 144 143 141 143 145 145 145 146 146 148 152 158 161 155 147 145 145 144 147 149 140 133 130 125 123 123 124 130 132 137 137 138 138 133 146 156 175 208 225 233 240 244 226 204 161 111 70 75 78 80 76 65 74 73 33 32 47 56 63 71 73 72 75 84 110 274 287 301 308 306 317 320 313
134 134 140 140 132 129 132 136 134 134 133 136 142 141 139 140 144 144 142 144 146 153 161 163 161 154 147 144 144 145 148 146 137 135 137 135 139 145 156 159 156 162 151 146 153 158 194 215 235 254 255 242 230 233 199 136 113 97 86 88 81 83 85 81 81 51 34 52 57 63 69 71 74 73 68 69 67 89 241 303 307 301 306 305 310
132 132 140 142 136 133 138 141 137 136 132 133 141 142 140 139 140 144 147 149 152 157 162 164 159 152 151 151 150 149 149 148 149 153 153 156 163 163 162 160 166 180 163 153 191 209 249 262 246 258 258 219 154 130 117 109 105 98 95 93 85 92 95 91 100 69 46 63 66 67 73 72 74 74 73 79 79 81 82 74 60 16 342 331 333
135 137 140 142 142 139 143 142 135 138 137 139 142 139 141 140 142 149 151 152 156 162 161 161 163 159 162 161 152 146 145 151 159 160 160 160 157 157 157 155 166 173 150 148 192 205 166 161 223 248 263 174 148 133 116 107 108 108 107 103 97 103 117 108 111 111 62 67 75 75 78 79 83 87 88 88 86 84 81 78 70 53 35 20 8
136 138 140 144 148 143 145 145 143 145 143 146 146 139 141 145 148 152 155 156 160 166 162 160 165 164 166 163 152 146 149 158 160 156 161 163 144 148 157 153 159 159 143 151 169 182 162 160 166 188 170 136 134 136 129 119 115 119 114 110 108 106 118 117 116 130 122 73 72 73 76 83 91 92 95 93 88 85 77 74 70 61 44 25 12
136 137 138 143 148 146 149 149 150 151 145 149 149 144 146 152 154 155 163 166 162 162 158 154 155 153 158 156 145 144 147 153 151 147 157 159 135 135 148 135 128 140 147 159 161 132 158 176 134 110 191 136 136 151 143 129 118 123 121 117 122 118 122 129 127 131 136 106 75 75 72 71 75 79 84 83 78 76 71 64 58 44 26 8 355
136 139 141 144 149 150 151 149 149 148 145 149 148 147 152 156 159 160 162 162 158 157 152 150 147 139 137 128 122 131 138 139 139 142 147 147 136 131 136 119 107 126 151 144 124 108 100 222 116 109 202 153 158 141 126 129 130 132 128 122 122 123 144 148 139 134 136 159 126 74 69 65 60 65 70 67 61 58 47 26 8 347 342 342 338
136 139 142 146 151 151 149 150 150 145 144 148 148 150 153 154 159 159 157 157 158 156 148 144 137 131 133 128 117 125 136 132 130 142 146 139 130 128 134 120 113 121 120 108 87 92 49 71 93 79 113 118 128 139 127 138 144 135 122 129 140 141 166 163 150 148 137 159 168 59 50 56 40 54 59 50 47 40 25 360 343 328 322 319 320
136 138 141 146 150 149 145 147 147 146 146 148 149 151 151 151 153 151 152 157 157 149 140 136 134 133 134 133 124 126 137 128 125 146 146 132 124 132 143 117 111 112 96 107 63 13 94 111 81 29 40 59 76 130 132 129 138 135 122 130 158 161 163 160 161 161 135 146 163 95 70 8 19 38 16 12 39 33 27 12 353 337 324 319 321
138 141 143 144 144 142 141 141 143 145 146 145 146 147 146 145 144 146 153 154 147 137 132 133 136 136 132 132 126 125 137 132 127 139 133 126 126 135 142 111 106 127 113 76 59 32 90 84 359 43 63 47 71 115 139 132 129 134 135 140 158 161 149 149 169 162 140 143 150 177 231 246 334 358 321 317 21 25 19 14 8 359 337 329 330
142 144 141 140 139 140 141 140 142 143 141 142 144 145 143 141 142 148 152 146 140 137 135 137 138 136 135 131 127 127 133 132 125 126 130 140 142 135 140 131 131 143 112 41 45 51 72 46 8 86 48 17 296 289 132 136 111 111 126 137 152 162 152 153 167 153 148 163 159 209 244 239 251 298 274 268 320 351 4 360 353 352 337 327 325
143 142 140 141 140 141 140 140 142 140 139 142 143 143 140 140 144 146 145 143 141 140 138 139 139 137 134 127 128 129 130 133 115 105 141 154 145 137 140 137 135 133 101 39 53 57 65 46 25 51 39 349 291 307 126 139 149 118 111 131 145 158 170 176 171 147 138 159 178 219 240 224 226 260 248 236 281 301 324 343 340 331 321 319 320
143 140 142 143 140 141 142 141 140 139 140 141 141 138 135 139 143 143 144 146 141 137 137 135 131 131 133 130 128 128 133 137 108 102 136 141 137 148 148 142 136 127 94 59 77 67 78 82 60 35 28 89 334 336 120 152 168 149 137 150 154 149 137 145 146 124 114 173 228 235 223 223 240 255 267 255 235 262 292 318 334 325 312 320 326
143 142 144 143 141 143 142 140 139 140 138 139 140 134 135 140 141 139 137 139 130 125 139 136 124 126 136 136 129 131 138 133 124 123 124 114 114 145 147 142 142 131 107 97 88 65 60 72 123 90 347 5 6 9 70 307 256 154 145 148 154 153 77 57 116 155 216 220 245 259 218 214 250 253 282 307 291 267 273 296 324 323 316 316 319
146 145 145 143 142 144 141 139 141 141 139 141 141 137 140 140 137 134 126 138 132 119 141 141 128 130 136 139 135 136 139 135 139 129 112 116 117 131 135 135 145 129 111 128 111 85 65 41 113 132 307 314 288 282 126 299 302 139 134 135 151 160 130 137 208 207 224 223 227 267 253 233 258 256 275 315 309 283 262 276 298 297 297 297 299
148 145 145 144 144 144 141 143 144 142 143 145 143 142 147 143 138 138 132 144 145 133 145 140 133 139 140 146 147 140 139 145 153 130 102 113 113 123 129 130 146 119 99 109 108 107 122 107 61 339 313 321 293 299 124 291 322 85 120 131 157 164 146 191 223 225 237 235 215 245 283 274 256 251 287 291 294 291 278 290 296 293 295 302 311
148 147 148 148 147 146 146 149 147 146 149 151 150 150 154 149 143 143 140 144 147 148 153 144 137 141 142 147 146 141 142 148 153 136 114 107 103 116 126 109 130 128 103 95 101 104 101 87 356 353 354 347 2 354 5 343 1 58 124 167 171 180 193 208 211 226 246 232 254 275 320 312 244 237 286 286 282 288 285 291 298 296 299 319 325
150 153 152 151 150 151 153 153 150 152 155 156 156 154 155 154 147 145 150 153 153 154 150 144 138 136 141 147 143 145 148 148 151 142 135 129 106 110 124 99 106 133 107 101 104 76 62 64 26 40 24 342 328 351 9 36 27 40 358 316 191 191 203 221 196 240 327 157 314 300 301 340 278 251 279 290 297 290 286 296 299 293 291 314 320
153 158 156 154 154 155 158 157 155 157 158 159 159 157 157 156 146 143 151 155 154 154 146 141 138 140 148 149 144 150 146 141 148 139 131 133 120 125 144 121 111 142 144 140 122 46 34 41 50 60 21 348 350 11 44 31 17 64 37 351 5 275 302 2 354 301 330 316 321 310 276 291 300 296 272 272 312 299 295 308 302 289 284 305 314
158 162 159 159 159 158 161 161 162 162 160 163 162 159 158 152 141 141 148 149 148 148 141 139 143 147 150 145 146 155 146 144 157 151 143 147 144 140 138 134 135 162 178 165 130 60 114 41 40 56 19 359 9 21 37 6 341 120 66 7 14 5 325 333 323 308 322 323 314 295 274 259 275 286 260 260 323 315 310 318 311 291 286 304 307
163 165 164 165 162 161 165 165 166 165 162 165 165 160 155 147 139 139 140 144 147 146 142 143 148 149 151 153 156 162 155 155 166 162 159 164 159 140 126 143 172 181 208 223 211 266 123 82 33 51 25 5 10 11 10 1 11 93 98 97 15 356 317 304 325 308 294 314 309 288 258 249 262 261 237 268 298 289 310 316 315 309 303 309 302
166 166 167 169 164 162 165 166 167 166 164 167 167 162 158 154 150 145 144 148 151 153 152 153 155 156 162 163 161 169 168 161 167 165 162 169 175 167 152 162 172 172 229 259 211 216 226 162 90 81 38 2 357 356 347 346 6 10 52 95 31 344 322 314 342 305 278 291 293 283 257 246 246 233 226 296 270 250 316 315 307 311 313 315 303
168 167 169 170 164 163 165 166 170 168 167 168 169 168 165 164 163 158 156 157 158 163 163 158 160 165 166 163 162 172 173 164 171 172 165 171 175 174 176 179 171 178 223 263 219 222 229 156 107 108 77 8 322 325 326 325 345 342 351 7 281 289 282 281 359 285 288 293 256 276 283 259 210 206 268 335 278 234 301 301 288 299 317 327 302
169 169 170 169 163 163 166 167 170 170 169 169 170 172 170 172 177 170 163 168 166 163 162 155 162 169 163 165 171 173 176 177 178 174 171 180 177 174 183 191 193 193 203 223 229 223 190 146 125 130 139 257 279 303 310 315 328 319 330 301 265 270 268 282 341 282 256 334 236 256 298 294 266 196 292 329 331 226 263 272 272 294 319 329 298
170 172 171 167 163 165 167 167 170 173 172 172 173 175 175 176 184 178 167 171 164 156 159 154 158 166 162 166 169 170 184 191 180 175 180 185 184 186 186 190 192 182 194 217 214 196 173 177 204 196 209 232 259 295 293 302 310 301 304 248 246 274 266 270 292 253 230 242 266 220 285 302 303 2 3 335 310 247 261 258 237 266 301 316 318
171 174 170 165 165 166 168 169 171 174 174 174 174 176 178 177 185 185 170 168 161 160 167 158 155 160 160 164 163 166 182 191 184 183 189 189 191 196 185 184 199 190 200 227 216 194 199 227 240 219 219 231 262 279 277 287 290 283 279 262 264 284 285 273 229 259 241 201 277 292 306 305 257 354 351 279 216 223 246 206 197 238 305 327 348
170 174 172 167 167 168 170 172 173 176 175 176 177 177 180 180 185 187 176 171 167 167 171 163 163 169 167 172 175 179 183 188 192 189 190 193 194 198 190 192 212 207 197 216 231 219 218 238 236 225 229 227 244 269 277 282 278 273 280 282 281 279 281 285 300 314 320 297 294 319 321 330 11 351 304 212 196 204 218 193 210 295 347 342 358
Height
798 798 800 799 801 800 801 800 800 800 801 801 801 802 801 802 802 803 804 806 807 808 809 810 811 812 812 812 813 814 814 814 815 817 818 820 820 821 821 821 820 820 819 819 819 820 821 823 825 826 827 826 825 825 825 826 827 828 828 828 828 827 828 828 828 828 828 828 829 829 830 831 832 832 832 833 833 833 833 834 834 834 834 834 835
797 799 800 800 801 801 802 801 802 802 802 803 802 803 803 804 804 805 805 807 808 809 810 811 812 813 813 813 814 815 815 816 817 818 819 820 821 822 823 823 822 821 820 820 820 820 821 822 825 826 828 828 827 827 826 827 827 828 829 829 829 829 829 829 830 830 829 829 830 831 832 832 833 833 833 834 834 834 834 835 835 834 835 835 836
796 799 800 801 802 802 803 802 803 803 804 804 804 804 804 806 805 807 807 808 809 810 811 813 814 814 814 814 816 816 817 817 818 819 820 821 822 823 824 824 823 823 822 822 821 821 820 821 824 826 827 828 829 828 828 828 828 829 830 831 831 830 830 830 831 831 831 832 832 832 833 833 834 834 835 835 835 835 835 836 836 835 836 836 836
796 798 800 801 802 802 803 803 804 805 805 805 806 806 806 807 807 808 808 809 810 811 812 814 814 814 815 815 816 817 818 818 819 820 821 823 823 824 825 825 825 824 823 823 822 822 821 820 823 825 827 828 829 829 830 830 830 831 831 832 832 832 831 831 832 832 833 833 834 834 834 834 835 836 836 836 836 837 837 837 837 837 837 837 838
797 798 800 802 803 803 803 804 805 806 806 807 807 807 808 808 808 809 810 811 811 812 813 814 815 815 816 816 817 818 819 819 820 821 822 824 825 826 826 827 827 826 825 824 824 823 822 821 822 825 826 827 828 830 832 832 832 832 832 833 833 834 833 832 832 832 834 834 835 836 836 836 836 837 837 838 838 838 838 838 838 838 839 839 839
797 798 800 802 803 804 804 805 806 807 807 808 808 809 809 809 810 811 811 812 812 813 813 814 815 816 816 816 817 818 820 821 821 822 824 825 826 827 827 828 828 827 826 825 825 825 824 823 823 825 827 828 829 830 832 834 834 834 834 834 834 835 835 834 833 833 834 835 836 836 837 837 837 838 838 838 839 839 839 839 839 839 840 840 840
796 798 800 801 803 804 805 806 807 808 808 809 809 810 810 811 811 811 812 813 814 814 814 815 815 816 816 817 818 819 820 821 823 824 825 826 827 828 828 829 828 828 827 827 826 826 825 825 825 827 829 830 831 831 833 835 835 835 835 835 835 836 836 836 835 835 835 835 835 837 838 838 838 838 839 839 839 839 839 839 840 840 841 841 841
797 799 801 802 803 804 805 806 807 808 809 810 810 810 811 811 812 812 813 814 815 814 815 815 815 816 816 818 819 820 821 822 824 825 827 828 829 829 829 830 829 829 828 828 828 827 827 827 827 828 830 831 833 833 834 835 836 836 836 836 836 837 837 838 837 837 836 836 836 837 838 839 839 839 840 839 839 839 839 840 840 841 841 842 842
798 800 801 802 803 805 806 807 808 809 809 810 811 811 812 812 813 813 813 815 815 815 815 815 816 816 817 819 820 820 820 822 825 827 829 829 830 830 831 831 831 830 830 829 829 829 828 828 829 829 830 832 834 834 835 836 837 837 837 837 837 837 838 838 838 838 837 837 837 837 838 839 839 839 840 840 840 840 840 841 841 841 842 842 842
798 800 802 802 804 805 806 807 809 809 810 810 811 812 813 813 814 814 814 815 816 816 816 816 817 817 818 819 820 820 820 822 826 828 830 831 831 832 832 832 832 831 831 830 830 830 830 830 830 831 831 833 835 835 836 837 838 838 838 838 837 837 838 839 839 839 839 838 838 838 839 839 839 839 840 841 841 841 841 842 842 842 842 842 842
798 801 802 803 805 806 806 808 809 810 810 811 812 813 814 814 814 814 814 815 817 817 817 817 818 819 819 820 820 821 822 824 828 829 831 832 832 832 833 833 833 832 831 831 831 831 831 831 832 832 833 834 836 836 836 838 838 839 839 838 838 837 838 839 839 840 840 840 839 839 839 839 839 839 840 841 841 842 842 842 842 843 843 843 843
799 801 802 804 805 807 807 809 810 811 811 813 814 815 816 815 815 815 815 816 817 817 818 818 820 820 820 821 822 823 825 827 829 830 831 832 833 833 833 833 833 833 832 832 832 832 832 832 833 833 834 836 837 837 838 838 839 839 839 839 838 838 838 838 839 841 841 841 841 840 840 840 840 840 840 841 841 842 842 843 843 843 843 843 843
800 801 803 805 806 808 808 810 811 812 813 814 815 815 816 817 817 817 817 817 818 818 819 820 821 822 822 822 823 825 828 829 830 831 832 832 833 833 834 834 833 833 833 832 833 833 833 833 834 834 836 837 838 838 838 839 839 839 839 839 839 838 838 838 840 841 842 842 842 841 841 841 841 841 841 841 841 842 842 843 843 843 843 843 843
800 802 803 805 806 808 808 810 811 812 813 814 815 815 817 817 817 818 818 818 818 819 820 821 822 823 823 824 825 827 829 830 831 831 832 833 834 834 834 835 834 834 833 833 834 834 834 834 834 835 836 837 838 838 839 839 839 839 839 840 839 838 838 839 840 841 841 842 841 841 841 841 841 841 841 842 842 842 843 843 843 843 843 843 843
800 802 803 804 806 808 809 810 811 813 813 814 815 815 816 817 818 818 819 820 820 820 821 823 823 823 823 825 827 829 830 830 831 832 833 834 834 835 835 835 835 835 834 835 835 835 835 835 836 836 837 837 838 838 839 840 840 840 840 840 840 839 838 839 841 841 841 841 841 841 841 842 842 842 842 842 843 843 843 843 843 844 844 844 844
800 802 804 805 806 807 809 811 812 814 814 815 815 815 817 818 819 820 821 822 822 822 822 822 823 824 825 827 829 830 830 831 832 833 833 834 835 835 835 835 835 835 835 835 836 836 836 836 836 836 837 838 838 839 839 840 840 840 840 840 839 839 839 839 841 841 841 841 840 841 841 842 842 842 842 843 843 843 843 843 844 844 844 844 844
800 802 803 805 807 808 810 812 814 815 816 817 817 816 818 819 821 821 822 823 823 823 822 822 823 824 826 828 829 830 831 832 833 833 834 834 835 836 836 835 835 836 836 836 837 837 837 837 837 837 838 838 838 839 839 840 840 840 840 840 839 839 839 839 841 841 842 841 840 841 841 842 842 842 842 843 843 843 844 844 844 844 844 844 844
801 802 803 805 806 808 810 813 815 818 818 818 818 818 819 820 822 822 823 824 824 824 824 824 825 826 827 829 830 831 832 832 833 834 834 835 835 836 836 836 836 836 837 837 838 838 838 838 838 838 838 839 839 839 839 839 839 840 839 839 839 839 839 839 840 841 842 841 841 841 841 842 842 842 842 843 843 844 844 844 844 844 844 844 844
802 803 804 805 806 808 810 813 816 818 819 818 817 819 821 821 823 824 824 825 825 826 826 826 827 828 829 830 831 832 833 833 834 834 835 835 835 836 836 837 837 836 837 837 838 839 838 838 839 839 839 839 839 839 839 839 839 840 839 839 839 839 839 839 840 841 842 841 841 841 842 842 842 842 842 843 843 844 844 845 845 845 845 845 845
803 804 805 805 806 808 810 813 816 818 819 818 818 818 820 821 823 825 826 827 827 827 827 828 829 830 831 831 832 833 834 834 835 835 836 836 835 836 836 837 838 837 837 838 839 839 839 839 839 840 839 839 839 839 839 839 839 839 839 839 839 839 839 839 840 841 841 841 841 842 842 842 842 842 842 843 844 845 845 845 845 845 845 845 845
805 804 805 806 807 809 810 813 815 817 819 820 821 819 820 821 823 826 828 828 828 829 829 830 831 831 832 832 833 834 835 835 836 837 837 837 836 836 836 837 838 838 838 839 839 839 840 840 840 840 840 839 839 839 839 839 839 840 840 839 839 839 838 839 840 841 841 841 841 842 842 842 842 842 843 843 844 846 846 846 846 846 846 846 846
804 804 805 806 808 810 810 813 815 817 819 822 823 822 823 824 825 826 828 829 829 830 830 832 832 832 833 833 833 834 835 836 836 837 838 838 837 837 837 837 838 839 839 839 840 840 840 840 840 840 840 840 840 839 839 839 839 840 840 840 839 839 839 840 841 841 841 841 842 843 843 843 843 843 843 844 845 846 847 847 847 846 846 846 846
804 804 804 805 808 810 811 813 815 817 820 823 824 824 826 828 829 829 829 830 830 831 831 832 833 833 833 833 834 835 836 836 837 838 838 838 838 838 838 838 838 839 839 840 840 840 840 840 840 840 840 840 839 839 839 839 839 840 840 840 840 840 840 841 842 841 841 842 843 843 843 844 844 844 845 845 846 846 847 847 847 847 846 846 846
805 805 804 805 808 809 811 812 814 817 820 822 823 825 827 829 830 831 831 831 831 831 832 833 833 834 834 834 835 835 836 837 837 838 838 839 839 839 839 839 839 839 840 840 840 840 840 840 840 840 840 839 839 839 839 839 839 840 840 840 841 841 842 841 841 841 842 843 843 844 844 844 845 845 845 846 846 847 847 847 847 847 846 846 846
806 807 805 805 808 810 810 812 815 817 819 821 822 824 826 828 829 830 831 831 830 830 832 833 834 834 834 835 835 836 837 837 838 838 839 839 839 839 839 840 840 840 840 840 840 840 840 840 840 840 839 839 838 838 838 839 840 841 841 841 842 842 841 841 841 841 842 843 843 844 845 845 845 845 846 846 846 847 847 847 847 847 846 846 846
807 808 806 806 809 812 812 813 815 817 819 820 821 824 826 828 829 830 831 831 830 829 832 834 834 835 835 835 836 837 838 838 838 839 839 839 840 840 840 840 840 841 841 840 840 840 840 840 840 839 839 838 838 838 839 840 841 842 842 842 841 841 841 841 841 841 842 843 843 844 845 845 845 845 845 846 846 846 846 846 846 846 846 846 845
806 807 807 808 810 812 814 814 815 817 819 821 821 823 825 827 828 830 831 831 830 829 831 833 834 835 835 836 837 838 838 838 839 839 840 839 840 840 840 840 840 841 841 840 840 840 841 840 840 839 838 839 839 840 840 840 841 842 842 841 841 841 840 841 842 842 842 843 843 844 844 844 844 844 845 845 845 845 845 845 845 845 845 845 845
805 808 808 808 810 812 814 815 816 818 819 821 822 822 824 825 827 829 830 831 831 831 831 832 834 834 835 837 837 838 838 839 839 840 840 839 839 839 840 840 839 840 840 841 841 841 841 840 841 840 839 840 840 840 841 841 841 842 842 841 841 841 841 842 842 842 842 842 843 843 843 843 843 843 844 844 844 844 844 844 844 844 844 844 844
805 807 809 809 811 812 814 815 816 818 819 821 822 823 824 825 826 828 829 831 832 833 833 833 834 835 836 837 837 837 838 839 839 840 840 839 839 839 839 839 839 840 840 842 842 842 842 842 842 841 840 841 840 840 841 841 841 841 842 841 841 841 841 842 842 843 843 842 842 842 842 842 843 843 843 844 844 844 844 844 844 843 843 843 843
804 806 808 810 811 813 814 815 816 818 819 820 822 824 825 825 826 828 829 831 833 834 834 835 835 836 836 836 837 837 838 839 839 840 840 839 839 839 840 839 839 840 841 843 843 843 843 842 842 842 842 841 840 840 840 841 841 842 842 842 841 841 841 841 842 843 843 843 843 843 843 843 843 843 843 843 844 844 844 844 844 843 842 842 842
804 805 808 810 811 813 813 814 816 818 819 821 822 824 825 827 828 829 830 831 833 834 834 835 836 836 836 836 836 836 838 839 839 840 839 839 839 840 840 840 840 841 843 844 845 844 844 843 843 844 842 841 841 840 840 840 841 841 841 842 842 841 841 841 843 843 843 843 843 843 844 844 844 844 844 843 843 843 843 843 843 843 842 841 841
802 805 807 809 811 812 813 814 816 817 819 821 822 824 826 828 829 829 830 831 832 833 834 835 836 836 836 836 837 837 838 839 839 840 839 839 840 840 840 841 842 843 844 844 845 844 844 843 843 843 842 840 841 840 840 840 840 841 841 842 842 842 841 842 843 843 843 844 844 844 844 844 844 844 844 843 843 842 842 842 842 842 842 841 840
801 803 806 808 810 811 813 815 816 817 819 821 822 824 826 827 828 829 830 831 832 833 834 835 836 837 837 837 838 838 838 839 839 839 839 840 840 841 842 842 844 844 844 844 845 844 843 843 843 842 841 840 840 840 840 840 840 840 841 842 842 842 842 842 844 843 843 844 844 844 844 844 844 845 844 844 843 842 841 841 841 841 841 841 840
801 803 805 807 809 810 812 814 816 818 819 821 822 823 825 827 828 829 830 831 832 833 834 835 836 837 838 838 838 838 838 838 839 839 840 840 841 842 842 843 844 845 845 845 845 845 844 843 842 842 841 840 840 840 840 840 840 840 841 842 842 842 842 843 844 843 843 844 844 845 845 845 844 844 844 844 843 842 842 841 841 841 841 841 840
800 802 804 806 808 809 811 814 816 817 819 820 821 823 824 826 827 828 829 830 831 833 834 835 837 838 838 838 838 838 838 838 839 839 840 841 842 842 843 844 845 846 846 846 845 845 844 844 843 842 841 841 839 839 840 840 840 841 841 842 842 843 843 844 844 844 844 844 845 845 845 845 844 844 844 843 843 843 843 842 842 841 841 840 840
800 802 804 806 808 810 811 813 815 817 818 820 821 822 824 825 827 828 829 830 831 832 833 835 836 837 838 838 839 838 838 839 839 840 841 841 842 843 844 845 846 847 846 846 845 844 844 844 843 843 842 841 840 840 841 841 841 842 842 842 842 843 843 843 843 843 844 844 845 845 845 845 844 844 844 844 843 843 843 843 842 842 841 840 840
800 802 804 805 808 810 811 813 815 816 818 820 821 822 823 825 826 827 828 829 830 832 833 835 836 837 838 838 838 839 839 839 840 841 842 842 843 844 845 846 847 847 847 846 845 845 844 844 844 844 843 842 841 841 841 841 842 842 842 843 842 842 842 842 842 843 844 845 845 844 844 844 845 845 844 844 843 843 843 842 842 842 841 841 840
800 802 804 806 807 810 811 813 815 816 818 819 821 822 823 825 826 827 828 828 829 831 833 834 836 837 838 838 838 839 839 840 841 841 843 844 844 845 846 847 848 848 847 847 846 845 845 845 845 845 844 843 843 842 842 843 843 841 842 843 843 843 842 842 843 843 844 844 844 844 844 844 844 844 844 844 843 843 842 842 842 842 842 841 840
800 802 804 805 807 810 811 813 815 816 818 819 821 822 823 824 825 826 827 828 829 831 832 833 835 837 837 838 839 839 840 840 841 842 843 844 845 846 847 847 848 848 847 847 846 846 846 846 846 846 845 844 843 844 844 844 843 841 841 842 843 843 843 843 844 844 843 843 844 844 843 843 844 844 844 843 843 842 842 841 841 841 841 841 840
800 802 804 806 808 810 812 814 815 816 818 819 820 822 823 824 825 827 828 829 830 831 832 833 835 837 838 839 839 839 840 840 841 842 843 844 845 847 847 848 848 848 848 848 847 848 847 847 847 847 845 844 843 843 843 843 843 841 841 843 843 843 843 843 843 843 843 843 843 843 842 843 843 843 843 843 843 842 841 841 841 841 841 840 839
800 802 804 806 808 810 812 814 815 817 818 819 821 821 823 824 826 828 828 829 830 831 832 834 835 837 838 839 839 840 840 841 842 843 843 844 845 846 847 848 848 848 848 848 848 848 848 848 848 847 846 845 844 843 843 843 843 842 843 843 843 843 844 844 843 843 843 842 841 841 841 841 841 842 842 842 842 842 841 840 840 840 840 839 838
800 803 804 806 808 810 812 814 815 817 818 819 820 821 823 824 826 827 828 829 830 831 833 834 835 837 838 839 839 840 841 842 842 843 844 844 844 846 847 847 848 848 848 848 848 848 849 849 848 847 846 846 845 844 843 843 843 844 844 844 844 844 843 843 843 843 842 841 841 842 841 841 841 842 842 842 842 841 841 840 840 840 839 839 838
799 802 804 806 808 810 812 813 815 816 818 819 820 821 823 824 825 827 828 829 830 832 833 834 836 837 838 838 839 840 840 842 843 843 844 844 844 845 846 847 848 848 848 848 848 848 848 848 847 847 846 846 845 845 844 844 845 845 846 848 847 847 846 844 843 843 843 843 843 842 841 841 841 842 842 842 842 842 841 841 840 839 839 839 838
799 801 804 806 808 810 812 813 815 816 817 819 820 821 823 824 825 827 828 829 830 832 833 834 835 837 837 838 839 840 840 841 842 842 843 843 844 845 845 846 847 847 848 848 848 848 848 847 847 847 846 846 845 845 845 845 846 846 847 849 848 850 853 848 844 844 844 844 843 842 842 841 842 842 843 843 842 842 842 842 841 840 839 839 837
797 800 802 805 807 809 811 813 814 816 817 819 820 821 822 824 825 826 828 829 830 831 832 834 835 836 837 838 839 839 840 841 841 842 843 843 844 844 845 845 846 847 847 847 847 847 847 847 847 847 846 846 846 846 846 846 846 846 847 849 850 855 856 849 846 847 845 844 844 842 843 842 842 843 843 843 842 842 842 841 841 840 839 838 837
796 798 801 803 806 808 811 812 814 815 817 818 820 821 822 823 824 826 827 828 829 831 832 833 834 835 836 837 838 839 840 841 841 842 843 843 843 844 844 844 845 846 846 846 847 847 847 847 847 847 847 847 847 847 847 846 846 846 846 847 850 855 855 851 852 851 846 844 844 844 843 843 843 843 843 843 843 842 841 841 841 840 839 837 837
794 797 800 802 805 807 810 812 813 815 817 818 820 821 822 823 824 825 826 828 829 830 831 832 833 834 836 837 838 839 839 840 841 842 842 843 843 843 844 844 845 845 845 846 846 846 846 846 847 847 847 847 848 848 848 847 847 847 847 847 847 850 852 852 853 853 851 847 845 845 845 844 843 843 844 845 844 843 842 842 841 840 838 837 837
793 795 798 800 804 807 809 811 813 814 816 818 819 820 822 823 824 825 826 827 828 829 831 832 833 834 835 836 837 838 839 840 841 841 842 843 842 843 843 844 844 844 844 845 845 846 845 846 847 847 847 848 848 849 849 848 847 847 847 847 848 849 850 850 849 849 851 852 849 846 845 845 843 844 847 846 844 843 844 843 841 839 838 837 837
792 794 796 799 803 806 808 810 812 814 815 817 819 820 821 822 823 824 825 826 827 829 830 831 833 833 834 836 836 837 838 839 840 841 841 842 842 842 843 843 844 843 844 844 844 845 845 846 846 846 847 848 849 849 849 848 848 848 848 847 848 848 849 849 849 848 848 850 851 846 844 848 848 846 845 844 843 844 843 842 840 838 838 837 837
790 792 795 798 802 805 807 809 811 813 814 816 818 819 820 822 823 824 824 826 827 828 830 831 832 833 834 835 835 836 837 838 839 840 841 841 841 842 842 842 843 843 843 843 844 844 845 845 845 846 847 848 849 848 848 848 848 848 848 848 848 848 848 848 849 848 846 846 848 844 842 846 848 844 841 844 846 843 840 839 839 838 838 837 836
788 791 794 797 800 803 806 808 810 812 813 815 817 818 820 821 822 823 824 825 826 828 829 830 831 832 833 834 834 835 836 837 838 839 840 840 841 841 841 842 842 842 843 843 843 844 844 845 845 846 847 848 848 848 848 848 848 848 848 848 849 848 848 847 846 846 845 844 845 844 842 842 843 843 841 842 844 841 838 839 838 837 837 837 836